Weather History for KMTJ - September, 2014

Change the Weather History Date:

Monday, September 1, 2014

  Actual Average Record
Temperature  
Mean Temperature 68 °F 67 °F  
Max Temperature 85 °F 82 °F 91 °F (1996)
Min Temperature 50 °F 52 °F 45 °F (2005)
Degree Days  
Heating Degree Days 0 1  
Month to date heating degree days 0 1  
Since 1 July heating degree days 7 6  
Cooling Degree Days 3 3  
Month to date cooling degree days 3 3  
Year to date cooling degree days 701 608  
Growing Degree Days 18 (Base 50)    
Moisture  
Dew Point 38 °F    
Average Humidity 40    
Maximum Humidity 63    
Minimum Humidity 17    
Precipitation  
Precipitation 0.00 in 0.03 in 0.17 in (2013)
Month to date precipitation 0.00 0.03  
Year to date precipitation 5.57 7.36  
Sea Level Pressure  
Sea Level Pressure 29.90 in    
Wind  
Wind Speed 8 mph (SSE)    
Max Wind Speed 14 mph    
Max Gust Speed 17 mph    
Visibility 10 miles    
Events      
T = Trace of Precipitation, MM = Missing Value Source: NWS Daily Summary

Daily Weather History Graph

Daily Weather History Graph

Search for Another Location

Airport or City:

Trip Planner

Search our weather history database for the weather conditions in past years. The results will help you decide how hot, cold, wet, or windy it might be!

Date:

Astronomy

Sep. 01, 2014 Rise Set
Actual Time 6:40 AM MDT 7:41 PM MDT
Civil Twilight 6:13 AM MDT 8:08 PM MDT
Nautical Twilight 5:41 AM MDT 8:40 PM MDT
Astronomical Twilight 5:07 AM MDT 9:14 PM MDT
Moon 1:24 PM MDT (9/1) 11:50 PM MDT (9/1)
Length of Visible Light 13h 54m
Length of Day
13h 00m
Waxing Crescent, 43% of the Moon is Illuminated
Sep 1
Waxing Crescent
Sep 2
First Quarter
Sep 8
Full
Sep 15
Last Quarter
Sep 24
New

Hourly Weather History & Observations

Time (MDT) Temp. Dew Point Humidity Pressure Visibility Wind Dir Wind Speed Gust Speed Precip Events Conditions
12:53 AM 57.9 °F 41.0 °F 53% 29.86 in 10.0 mi SSE 9.2 mph - N/A   Clear
1:53 AM 55.0 °F 41.0 °F 59% 29.88 in 10.0 mi South 5.8 mph - N/A   Clear
2:53 AM 54.0 °F 39.9 °F 59% 29.89 in 10.0 mi SSE 9.2 mph - N/A   Clear
3:53 AM 51.1 °F 39.9 °F 66% 29.91 in 10.0 mi SSE 8.1 mph - N/A   Clear
4:53 AM 54.0 °F 36.0 °F 51% 29.88 in 10.0 mi SE 11.5 mph - N/A   Clear
5:53 AM 53.1 °F 37.0 °F 55% 29.89 in 10.0 mi SE 9.2 mph - N/A   Clear
6:53 AM 51.1 °F 37.9 °F 61% 29.92 in 10.0 mi SSE 8.1 mph - N/A   Clear
7:53 AM 55.0 °F 39.0 °F 55% 29.94 in 10.0 mi SSE 6.9 mph - N/A   Clear
9:53 AM 64.9 °F 37.0 °F 36% 29.96 in 10.0 mi WNW 4.6 mph - N/A   Clear
10:53 AM 70.0 °F 37.0 °F 30% 29.95 in 10.0 mi Calm Calm - N/A   Clear
11:53 AM 75.9 °F 33.1 °F 21% 29.92 in 10.0 mi Calm Calm - N/A   Clear
12:53 PM 79.0 °F 33.1 °F 19% 29.89 in 10.0 mi Variable 4.6 mph - N/A   Clear
1:53 PM 82.0 °F 34.0 °F 18% 29.88 in 10.0 mi Variable 4.6 mph - N/A   Clear
2:53 PM 82.9 °F 36.0 °F 19% 29.85 in 10.0 mi North 10.4 mph - N/A   Clear
3:53 PM 84.0 °F 35.1 °F 17% 29.85 in 10.0 mi NNW 10.4 mph - N/A   Clear
4:53 PM 82.9 °F 36.0 °F 19% 29.84 in 10.0 mi NNW 12.7 mph - N/A   Clear
5:53 PM 82.9 °F 36.0 °F 19% 29.86 in 10.0 mi NNW 12.7 mph - N/A   Clear
6:53 PM 79.0 °F 37.9 °F 23% 29.89 in 10.0 mi NNW 9.2 mph - N/A   Clear
7:53 PM 73.0 °F 37.9 °F 28% 29.91 in 10.0 mi North 6.9 mph - N/A   Clear
8:53 PM 68.0 °F 42.1 °F 39% 29.92 in 10.0 mi WSW 4.6 mph - N/A   Clear
9:53 PM 64.0 °F 39.9 °F 41% 29.95 in 10.0 mi SE 9.2 mph - N/A   Clear
10:53 PM 62.1 °F 39.9 °F 44% 29.95 in 10.0 mi SE 10.4 mph - N/A   Clear
11:53 PM 62.1 °F 37.0 °F 39% 29.94 in 10.0 mi SE 13.8 mph - N/A   Clear